Regional Weather Roundup
Issued by NWS Raleigh/Durham, NC

Home | Current Version | Previous Version | Text Only | Print | Product List | Glossary On
Versions: 1 2 3 4 5 6 7 8 9 10 11 12 13 14 15 16 17 18 19 20 21 22 23 24 25 26 27 28 29 30 31 32 33 34 35 36 37 38 39 40 41 42 43 44 45 46 47 48 49 50
000
ASUS42 KRAH 010510
RWRRAH
NORTH CAROLINA WEATHER ROUNDUP
NATIONAL WEATHER SERVICE RALEIGH NC
100 AM EDT FRI AUG 01 2014

NOTE: "FAIR" INDICATES FEW OR NO CLOUDS BELOW 12,000 FEET WITH NO
SIGNIFICANT WEATHER AND/OR OBSTRUCTIONS TO VISIBILITY.

NCZ001-053-055-056-065-067-010600-
WESTERN NORTH CAROLINA

CITY           SKY/WX    TMP DP  RH WIND       PRES   REMARKS
ASHEVILLE      RAIN      63  60  90 CALM      30.20S
JEFFERSON      LGT RAIN  60  58  94 CALM      30.24S
MORGANTON      RAIN      65  65 100 CALM      30.22S
HICKORY        LGT RAIN  66  64  93 CALM      30.17S FOG
RUTHERFORDTON  LGT RAIN  64  64  97 N5        30.17S
MOUNT AIRY     RAIN      68  65  90 E3        30.18S
BOONE          RAIN      58  58 100 CALM      30.25S
$$

NCZ021-022-025-041-071-084-088-010600-
CENTRAL NORTH CAROLINA

CITY           SKY/WX    TMP DP  RH WIND       PRES   REMARKS
CHARLOTTE      CLOUDY    68  65  90 N5        30.13F
GREENSBORO     LGT RAIN  67  66  97 E3        30.16F
WINSTON-SALEM  LGT RAIN  67  65  93 CALM      30.18F
RALEIGH-DURHAM LGT RAIN  70  67  90 CALM      30.17S FOG
FORT BRAGG     CLOUDY    72  69  90 NE7       30.11
FAYETTEVILLE   CLOUDY    72  69  90 NE6       30.10F
BURLINGTON     LGT RAIN  69  66  90 NE5       30.17F
LAURINBURG     CLOUDY    73  69  87 E7        30.11S
$$

NCZ011-015-027-028-043-044-047-080-103-010600-
NORTHEASTERN NORTH CAROLINA

CITY           SKY/WX    TMP DP  RH WIND       PRES   REMARKS
ROCKY MT-WILSO CLOUDY    71  68  90 CALM      30.16S
GREENVILLE     CLOUDY    72  68  88 CALM      30.16F
WASHINGTON     CLOUDY    70  66  85 CALM      30.16S
ELIZABETH CITY CLOUDY    73  66  78 CALM      30.17S
MANTEO         NOT AVBL
CAPE HATTERAS  CLOUDY    79  66  64 E12       30.15F
$$

NCZ078-087-090-091-093-098-101-010600-
SOUTHEASTERN NORTH CAROLINA

CITY           SKY/WX    TMP DP  RH WIND       PRES   REMARKS
LUMBERTON      LGT RAIN  74  69  85 NE6       30.09F
GOLDSBORO      NOT AVBL
KINSTON        CLOUDY    73  67  82 NE3       30.15F
KENANSVILLE    CLOUDY    73  67  81 E3        30.13F
NEW BERN       CLOUDY    76  69  79 CALM      30.15F
CHERRY POINT   CLOUDY    73  69  87 CALM      30.15S
BEAUFORT       CLOUDY    80  68  66 E9        30.13F
JACKSONVILLE   CLOUDY    76  69  79 E7        30.12F
WILMINGTON     LGT RAIN  79  72  79 E10       30.09F
$$



USA.gov is the U.S. government's official web portal to all federal, state and local government web resources and services.